EW9957 Weather Reports


time (UTC)temp
F
wind
direction
speed
knots
gust
knots
rain 1hr
in
rain 24hr
in
rain mn
in
humidity
%
barometer
mb
20260903222604 75 36 8.7 13.0 0.00 0.00 0.00 67 1014.2
20260903222522 75 36 8.7 13.0 0.00 0.00 0.00 67 1014.2
20260903222115 74 35 5.2 13.0 0.00 0.00 0.00 66 1014.3
20260903222032 74 35 5.2 13.0 0.00 0.00 0.00 66 1014.3
20260903221548 75 35 7.8 14.8 0.00 0.00 0.00 68 1014.2
20260903221101 74 35 8.7 11.3 0.00 0.00 0.00 63 1014.4
20260903220534 75 32 6.1 11.3 0.00 0.00 0.00 63 1014.4
20260903220013 75 35 7.8 11.3 0.00 0.00 0.00 61 1014.5
20260903215527 75 34 6.1 11.3 0.00 0.00 0.00 64 1014.4
20260903215100 75 35 8.7 13.0 0.00 0.00 0.00 67 1014.5
20260903215018 75 35 8.7 13.0 0.00 0.00 0.00 67 1014.5
20260903214610 75 35 8.7 13.9 0.00 0.00 0.00 66 1014.5
20260903214527 75 35 8.7 13.9 0.00 0.00 0.00 66 1014.5
20260903214101 75 35 7.8 13.9 0.00 0.00 0.00 67 1014.5
20260903213552 75 35 9.6 13.9 0.00 0.00 0.00 67 1014.6
20260903213053 75 35 8.7 13.0 0.00 0.00 0.00 67 1014.6
20260903212606 75 35 7.8 13.0 0.00 0.00 0.00 67 1014.6
20260903212523 75 35 7.8 13.0 0.00 0.00 0.00 67 1014.6
20260903212038 75 36 7.8 11.3 0.00 0.00 0.00 68 1014.6
20260903211535 75 35 7.0 13.0 0.00 0.00 0.00 67 1014.6
20260903211050 75 35 6.1 13.0 0.00 0.00 0.00 68 1014.6
20260903210603 75 34 7.0 11.3 0.00 0.00 0.00 68 1014.6
20260903210520 75 34 7.0 11.3 0.00 0.00 0.00 68 1014.6
20260903210112 75 35 7.0 13.9 0.00 0.00 0.00 66 1014.6
20260903205543 74 38 7.8 13.9 0.00 0.00 0.00 69 1014.6
20260903205055 75 34 6.1 10.4 0.00 0.00 0.00 68 1014.6
20260903204531 75 34 7.0 12.2 0.00 0.00 0.00 68 1014.6
20260903204104 75 36 7.0 13.0 0.00 0.00 0.00 69 1014.6
20260903203515 75 35 7.0 13.0 0.00 0.00 0.00 69 1014.7
20260903203035 74 34 7.8 13.0 0.00 0.00 0.00 69 1014.8
20260903202604 75 32 6.1 12.2 0.00 0.00 0.00 68 1014.8
20260903202522 75 32 6.1 12.2 0.00 0.00 0.00 68 1014.8
20260903202041 75 36 7.8 12.2 0.00 0.00 0.00 68 1014.8
20260903201558 74 32 5.2 10.4 0.00 0.00 0.00 68 1014.8
20260903201516 74 32 5.2 10.4 0.00 0.00 0.00 68 1014.8
20260903201014 75 35 7.0 10.4 0.00 0.00 0.00 66 1014.9
20260903200605 75 34 7.8 11.3 0.00 0.00 0.00 66 1014.8
20260903200522 75 34 7.8 11.3 0.00 0.00 0.00 66 1014.8
20260903200041 75 36 6.1 9.6 0.00 0.00 0.00 66 1014.8
20260903195513 76 38 6.1 10.4 0.00 0.00 0.00 65 1014.9
20260903195107 75 34 6.1 12.2 0.00 0.00 0.00 66 1015.0
20260903195024 75 34 6.1 12.2 0.00 0.00 0.00 66 1015.0
20260903194614 75 34 8.7 13.0 0.00 0.00 0.00 66 1015.1
20260903194046 76 36 6.1 13.0 0.00 0.00 0.00 66 1015.0
20260903193559 75 35 6.1 13.0 0.00 0.00 0.00 66 1015.1
20260903193108 75 36 5.2 12.2 0.00 0.00 0.00 65 1015.1
20260903193025 75 36 5.2 12.2 0.00 0.00 0.00 65 1015.1
20260903192539 75 34 7.0 12.2 0.00 0.00 0.00 65 1015.2
20260903192053 75 36 6.1 10.4 0.00 0.00 0.00 65 1015.2
20260903191532 76 36 4.3 13.0 0.00 0.00 0.00 65 1015.2
20260903191047 76 34 7.8 11.3 0.00 0.00 0.00 63 1015.2
20260903190558 76 35 8.7 11.3 0.00 0.00 0.00 63 1015.3
20260903190516 76 35 8.7 11.3 0.00 0.00 0.00 63 1015.3
20260903190016 76 35 7.8 11.3 0.00 0.00 0.00 62 1015.3
20260903185610 76 34 6.1 11.3 0.00 0.00 0.00 61 1015.4
20260903185528 76 34 6.1 11.3 0.00 0.00 0.00 61 1015.4
20260903185101 77 32 7.0 10.4 0.00 0.00 0.00 60 1015.5
20260903184611 77 36 7.0 10.4 0.00 0.00 0.00 60 1015.6
20260903184041 77 36 5.2 10.4 0.00 0.00 0.00 60 1015.7
20260903183535 76 35 5.2 10.4 0.00 0.00 0.00 60 1015.8
20260903183057 76 36 7.8 10.4 0.00 0.00 0.00 61 1015.9
20260903183014 76 36 7.8 10.4 0.00 0.00 0.00 61 1015.9
20260903182527 76 36 4.3 9.6 0.00 0.00 0.00 61 1015.9
20260903182042 76 35 6.1 9.6 0.00 0.00 0.00 61 1015.9
20260903181559 77 35 2.6 7.8 0.00 0.00 0.00 61 1016.0
20260903181013 76 35 5.2 7.8 0.00 0.00 0.00 61 1015.9
20260903180549 76 38 2.6 7.8 0.00 0.00 0.00 60 1015.9
20260903180107 76 35 1.7 7.8 0.00 0.00 0.00 60 1016.0
20260903180025 76 35 1.7 7.8 0.00 0.00 0.00 60 1016.0
20260903175522 75 35 4.3 8.7 0.00 0.00 0.00 59 1016.0
20260903175037 75 35 1.7 6.1 0.00 0.00 0.00 58 1016.0
20260903174515 75 35 1.7 6.1 0.00 0.00 0.00 61 1016.1
20260903174029 75 34 3.5 6.1 0.00 0.00 0.00 61 1016.1
20260903173523 75 36 1.7 4.3 0.00 0.00 0.00 61 1016.1
20260903173106 74 36 1.7 4.3 0.00 0.00 0.00 62 1016.1
20260903173024 74 36 1.7 4.3 0.00 0.00 0.00 62 1016.1
20260903172537 74 34 2.6 4.3 0.00 0.00 0.00 61 1016.0
20260903172110 73 36 0.9 5.2 0.00 0.00 0.00 63 1016.1
20260903172027 73 36 0.9 5.2 0.00 0.00 0.00 63 1016.1
20260903171610 73 34 1.7 5.2 0.00 0.00 0.00 64 1016.0
20260903171528 73 34 1.7 5.2 0.00 0.00 0.00 64 1016.0
20260903171021 73 35 1.7 4.3 0.00 0.00 0.00 64 1016.1
20260903170535 72 35 1.7 4.3 0.00 0.00 0.00 62 1016.2
20260903170012 72 35 0.9 6.1 0.00 0.00 0.00 66 1016.2
20260903165548 71 35 2.6 5.2 0.00 0.00 0.00 67 1016.2
20260903165021 71 34 2.6 4.3 0.00 0.00 0.00 69 1016.2
20260903164604 71 32 2.6 8.7 0.00 0.00 0.00 69 1016.2
20260903164522 71 32 2.6 8.7 0.00 0.00 0.00 69 1016.2
20260903164034 70 35 0.9 8.7 0.00 0.00 0.00 71 1016.2
20260903163607 70 38 3.5 7.8 0.00 0.00 0.00 70 1016.2
20260903163524 70 38 3.5 7.8 0.00 0.00 0.00 70 1016.2
20260903163045 70 36 0.9 6.1 0.00 0.00 0.00 72 1016.2
20260903162537 69 35 0.9 5.2 0.00 0.00 0.00 73 1016.2
20260903162051 69 37 2.6 5.2 0.00 0.00 0.00 74 1016.3
20260903161529 68 36 3.5 5.2 0.00 0.00 0.00 74 1016.3
20260903161042 69 34 1.7 4.3 0.00 0.00 0.00 74 1016.3
20260903160515 69 34 2.6 4.3 0.00 0.00 0.00 76 1016.4
20260903160034 68 35 1.7 3.5 0.00 0.00 0.00 75 1016.3
20260903155527 68 35 0.9 1.7 0.00 0.00 0.00 77 1016.3
20260903155101 68 35 0.9 1.7 0.00 0.00 0.00 78 1016.3
20260903155018 68 35 0.9 1.7 0.00 0.00 0.00 78 1016.3
20260903154518 68 34 0.0 1.7 0.00 0.00 0.00 77 1016.4
20260903154113 68 36 0.9 3.5 0.00 0.00 0.00 76 1016.4
20260903154030 68 36 0.9 3.5 0.00 0.00 0.00 76 1016.4
20260903153543 67 35 0.9 3.5 0.00 0.00 0.00 74 1016.4
20260903153038 67 34 1.7 4.3 0.00 0.00 0.00 73 1016.4
20260903152610 67 34 0.9 4.3 0.00 0.00 0.00 74 1016.5
20260903152042 66 37 0.9 3.5 0.00 0.00 0.00 74 1016.5
20260903151541 65 36 1.7 5.2 0.00 0.00 0.00 75 1016.4
20260903151112 65 35 3.5 5.2 0.00 0.00 0.00 75 1016.4
20260903151030 65 35 3.5 5.2 0.00 0.00 0.00 75 1016.4
20260903150544 64 36 2.6 5.2 0.00 0.00 0.00 77 1016.4
20260903150105 64 37 1.7 5.2 0.00 0.00 0.00 78 1016.5
20260903145617 63 36 2.6 5.2 0.00 0.00 0.00 79 1016.4
20260903145047 63 35 2.6 5.2 0.00 0.00 0.00 79 1016.5
20260903144609 63 38 2.6 5.2 0.00 0.00 0.00 79 1016.5
20260903144042 63 35 2.6 7.0 0.00 0.00 0.00 80 1016.4
20260903143555 62 34 3.5 7.0 0.00 0.00 0.00 80 1016.3
20260903143055 62 36 4.3 7.0 0.00 0.00 0.00 81 1016.3
20260903142547 61 35 4.3 7.0 0.00 0.00 0.00 82 1016.2
20260903142019 61 34 3.5 7.0 0.00 0.00 0.00 83 1016.1
20260903141541 61 35 3.5 7.0 0.00 0.00 0.00 84 1016.1
20260903141114 61 36 4.3 7.0 0.00 0.00 0.00 84 1016.1
20260903141031 61 36 4.3 7.0 0.00 0.00 0.00 84 1016.1
20260903140605 61 35 4.3 7.8 0.00 0.00 0.00 85 1016.0
20260903140045 61 37 3.5 7.8 0.00 0.00 0.00 85 1015.9
20260903135559 60 35 4.3 7.0 0.00 0.00 0.00 85 1015.8
20260903135105 60 37 2.6 5.2 0.00 0.00 0.00 86 1015.7
20260903134527 60 38 3.5 7.0 0.00 0.00 0.00 86 1015.7
20260903134021 60 35 3.5 7.0 0.00 0.00 0.00 86 1015.7
20260903133515 60 35 3.5 7.0 0.00 0.00 0.00 86 1015.6
20260903133015 60 34 4.3 7.8 0.00 0.00 0.00 86 1015.6
20260903132548 60 35 4.3 7.8 0.00 0.00 0.00 86 1015.6
20260903132040 60 34 3.5 7.8 0.00 0.00 0.00 87 1015.5
20260903131603 60 35 3.5 6.1 0.00 0.00 0.00 87 1015.5
20260903131520 60 35 3.5 6.1 0.00 0.00 0.00 87 1015.5
20260903131054 60 36 4.3 7.0 0.00 0.00 0.00 87 1015.5
20260903130608 60 34 3.5 7.0 0.00 0.00 0.00 87 1015.5
20260903130041 60 38 3.5 6.1 0.00 0.00 0.00 87 1015.5
20260903125517 60 35 3.5 5.2 0.00 0.00 0.00 87 1015.5
20260903125031 60 34 2.6 5.2 0.00 0.00 0.00 87 1015.5
20260903124610 61 34 3.5 5.2 0.00 0.00 0.00 87 1015.5
20260903124025 61 38 3.5 6.1 0.00 0.00 0.00 87 1015.4
20260903123537 61 34 4.3 5.2 0.00 0.00 0.00 87 1015.4
20260903123015 61 34 3.5 5.2 0.00 0.00 0.00 87 1015.4
20260903122604 61 34 2.6 5.2 0.00 0.00 0.00 87 1015.4
20260903122041 61 32 3.5 7.0 0.00 0.00 0.00 87 1015.4
20260903121520 61 32 3.5 7.0 0.00 0.00 0.00 88 1015.4
20260903121033 61 35 3.5 6.1 0.00 0.00 0.00 88 1015.3
20260903120547 61 36 3.5 7.0 0.00 0.00 0.00 88 1015.3
20260903120041 60 36 3.5 6.1 0.00 0.00 0.00 88 1015.3
20260903115553 61 34 4.3 6.1 0.00 0.00 0.00 88 1015.4
20260903115106 61 35 3.5 6.1 0.00 0.00 0.00 89 1015.4
20260903115024 61 35 3.5 6.1 0.00 0.00 0.00 89 1015.4
20260903114616 61 34 3.5 5.2 0.00 0.00 0.00 89 1015.4
20260903114534 61 34 3.5 5.2 0.00 0.00 0.00 89 1015.4
20260903114027 60 32 3.5 5.2 0.00 0.00 0.00 89 1015.5
20260903113541 60 34 2.6 5.2 0.00 0.00 0.00 89 1015.5
20260903113112 60 36 1.7 3.5 0.00 0.00 0.00 89 1015.5
20260903113030 60 36 1.7 3.5 0.00 0.00 0.00 89 1015.5
20260903112603 61 36 0.0 1.7 0.00 0.00 0.00 89 1015.5
20260903112055 61 35 0.9 1.7 0.00 0.00 0.00 89 1015.5
20260903111555 61 37 0.0 0.0 0.00 0.00 0.00 88 1015.5
20260903111047 61 36 0.0 1.7 0.00 0.00 0.00 89 1015.5
20260903110559 60 34 0.9 0.9 0.00 0.00 0.00 88 1015.5
20260903110059 61 34 0.0 0.0 0.00 0.00 0.00 88 1015.6
20260903105530 61 34 0.0 0.0 0.00 0.00 0.00 88 1015.6
20260903105044 61 36 0.0 0.0 0.00 0.00 0.00 88 1015.6
20260903104544 61 36 0.0 0.0 0.00 0.00 0.00 88 1015.6
20260903104015 61 36 0.0 0.0 0.00 0.00 0.00 88 1015.7
20260903103529 61 34 0.0 0.0 0.00 0.00 0.00 88 1015.7
20260903103049 61 34 0.0 0.0 0.00 0.00 0.00 88 1015.7
20260903102542 61 35 0.0 0.9 0.00 0.00 0.00 88 1015.8
20260903102054 61 36 0.0 1.7 0.00 0.00 0.00 87 1015.8
20260903101536 61 36 0.0 1.7 0.00 0.00 0.00 87 1015.9
20260903101049 61 36 0.0 0.0 0.00 0.00 0.00 87 1015.9
20260903100521 61 34 0.0 0.9 0.00 0.00 0.00 87 1015.9
20260903100114 62 36 0.0 1.7 0.00 0.00 0.00 87 1016.0
20260903100031 62 36 0.0 1.7 0.00 0.00 0.00 87 1016.0
20260903095604 62 35 0.0 0.0 0.00 0.00 0.00 87 1016.0
20260903095522 62 35 0.0 0.0 0.00 0.00 0.00 87 1016.0
20260903095035 62 34 0.0 1.7 0.00 0.00 0.00 87 1016.1
20260903094556 62 37 0.0 1.7 0.00 0.00 0.00 86 1016.1
20260903094027 63 35 0.9 2.6 0.00 0.00 0.00 86 1016.2
20260903093541 63 35 0.0 3.5 0.00 0.00 0.00 86 1016.2
20260903093112 63 34 1.7 4.3 0.00 0.00 0.00 86 1016.2
20260903093030 63 34 1.7 4.3 0.00 0.00 0.00 86 1016.2
20260903092604 63 34 2.6 4.3 0.00 0.00 0.00 86 1016.2
20260903092521 63 34 2.6 4.3 0.00 0.00 0.00 86 1016.2
20260903092035 63 34 2.6 3.5 0.00 0.00 0.00 87 1016.2
20260903091515 63 36 1.7 3.5 0.00 0.00 0.00 87 1016.3
20260903091107 63 36 1.7 3.5 0.00 0.00 0.00 87 1016.4
20260903090558 63 35 1.7 3.5 0.00 0.00 0.00 87 1016.3
20260903090516 63 35 1.7 3.5 0.00 0.00 0.00 87 1016.3
20260903090016 63 36 1.7 3.5 0.00 0.00 0.00 87 1016.3
20260903085610 63 38 1.7 3.5 0.00 0.00 0.00 87 1016.4
20260903085528 63 38 1.7 3.5 0.00 0.00 0.00 87 1016.4
20260903085101 63 34 1.7 3.5 0.00 0.00 0.00 87 1016.4
20260903084557 63 34 1.7 3.5 0.00 0.00 0.00 87 1016.4
20260903084027 63 32 1.7 3.5 0.00 0.00 0.00 87 1016.4
20260903083601 63 32 2.6 3.5 0.00 0.00 0.00 87 1016.5
20260903083518 63 32 2.6 3.5 0.00 0.00 0.00 87 1016.5
20260903083111 63 38 2.6 3.5 0.00 0.00 0.00 87 1016.6
20260903082603 63 35 1.7 4.3 0.00 0.00 0.00 87 1016.6
20260903082520 63 35 1.7 4.3 0.00 0.00 0.00 87 1016.6
20260903082014 63 35 2.6 4.3 0.00 0.00 0.00 87 1016.7
20260903081515 63 38 2.6 4.3 0.00 0.00 0.00 87 1016.7
20260903081049 63 37 2.6 5.2 0.00 0.00 0.00 87 1016.6
20260903080601 64 34 2.6 3.5 0.00 0.00 0.00 87 1016.6
20260903080039 64 34 0.9 2.6 0.00 0.00 0.00 87 1016.7
20260903075610 64 36 0.9 3.5 0.00 0.00 0.00 87 1016.7
20260903075528 64 36 0.9 3.5 0.00 0.00 0.00 87 1016.7
20260903075101 63 34 1.7 3.5 0.00 0.00 0.00 87 1016.7
20260903074612 64 35 2.6 3.5 0.00 0.00 0.00 88 1016.8
20260903074530 64 35 2.6 3.5 0.00 0.00 0.00 88 1016.8
20260903074105 64 38 0.9 2.6 0.00 0.00 0.00 88 1016.8
20260903074022 64 38 0.9 2.6 0.00 0.00 0.00 88 1016.8
20260903073514 63 36 0.0 0.9 0.00 0.00 0.00 87 1016.8
20260903073033 63 34 0.0 1.7 0.00 0.00 0.00 87 1016.7
20260903072547 63 35 0.0 1.7 0.00 0.00 0.00 87 1016.7
20260903072039 63 35 0.0 0.0 0.00 0.00 0.00 87 1016.7
20260903071541 63 32 0.0 0.0 0.00 0.00 0.00 86 1016.7
20260903071033 63 35 0.0 1.7 0.00 0.00 0.00 87 1016.7
20260903070525 63 35 0.0 1.7 0.00 0.00 0.00 87 1016.7
20260903070107 64 35 0.0 0.0 0.00 0.00 0.00 87 1016.7
20260903065541 64 36 0.0 0.0 0.00 0.00 0.00 87 1016.7
20260903065053 64 35 0.0 0.0 0.00 0.00 0.00 87 1016.8
20260903064552 64 35 0.0 0.0 0.00 0.00 0.00 87 1016.7
20260903064045 64 38 0.0 0.0 0.00 0.00 0.00 87 1016.7
20260903063518 64 36 0.0 0.0 0.00 0.00 0.00 86 1016.6
20260903063038 64 35 0.0 0.0 0.00 0.00 0.00 86 1016.8
20260903062550 64 38 0.0 0.0 0.00 0.00 0.00 86 1016.7
20260903062042 64 35 0.0 0.0 0.00 0.00 0.00 86 1016.7
20260903061613 64 36 0.0 0.0 0.00 0.00 0.00 85 1016.8
20260903061530 64 36 0.0 0.0 0.00 0.00 0.00 85 1016.8
20260903061044 64 35 0.0 0.9 0.00 0.00 0.00 85 1016.8
20260903060557 65 36 0.0 1.7 0.00 0.00 0.00 85 1016.8
20260903060014 65 38 0.9 1.7 0.00 0.00 0.00 85 1016.8
20260903055548 65 35 0.0 1.7 0.00 0.00 0.00 85 1016.8
20260903055101 65 38 0.9 1.7 0.00 0.00 0.00 85 1016.8
20260903054539 65 38 0.0 1.7 0.00 0.00 0.00 85 1016.9
20260903054106 65 35 0.0 1.7 0.00 0.00 0.00 85 1016.9
20260903054024 65 35 0.0 1.7 0.00 0.00 0.00 85 1016.9
20260903053557 65 37 0.0 1.7 0.00 0.00 0.00 85 1017.0
20260903053514 65 37 0.0 1.7 0.00 0.00 0.00 85 1017.0
20260903053014 65 34 0.9 1.7 0.00 0.00 0.00 84 1017.0
20260903052529 65 35 0.0 0.0 0.00 0.00 0.00 84 1017.0
20260903052026 65 38 0.0 0.0 0.00 0.00 0.00 84 1017.0
20260903051615 65 35 0.0 0.0 0.00 0.00 0.00 84 1017.0
20260903051048 65 36 0.0 0.0 0.00 0.00 0.00 84 1017.1
20260903050601 65 38 0.0 0.0 0.00 0.00 0.00 84 1017.0
20260903050111 65 36 0.0 0.0 0.00 0.00 0.00 83 1017.0
20260903045541 65 35 0.0 0.0 0.00 0.00 0.00 83 1017.0
20260903045013 65 36 0.0 0.0 0.00 0.00 0.00 82 1017.0
20260903044515 65 36 0.0 0.0 0.00 0.00 0.00 82 1017.0
20260903044108 66 38 0.0 0.0 0.00 0.00 0.00 81 1016.9
20260903044026 66 38 0.0 0.0 0.00 0.00 0.00 81 1016.9
20260903043518 66 35 0.0 0.0 0.00 0.00 0.00 81 1016.9
20260903043040 66 35 0.0 1.7 0.00 0.00 0.00 80 1016.9
20260903042517 66 35 0.0 1.7 0.00 0.00 0.00 81 1016.9
20260903042032 66 34 0.0 1.7 0.00 0.00 0.00 80 1016.8
20260903041553 67 34 0.0 1.7 0.00 0.00 0.00 79 1016.8
20260903041046 67 38 0.0 2.6 0.00 0.00 0.00 80 1016.8
20260903040615 68 38 1.7 3.5 0.00 0.00 0.00 81 1016.8
20260903040532 68 38 1.7 3.5 0.00 0.00 0.00 81 1016.8
20260903040031 67 35 2.6 3.5 0.00 0.00 0.00 81 1016.7
20260903035524 67 35 0.9 2.6 0.00 0.00 0.00 81 1016.6
20260903035022 68 34 1.7 2.6 0.00 0.00 0.00 81 1016.5
20260903034611 68 36 0.9 2.6 0.00 0.00 0.00 80 1016.4
20260903034102 68 34 0.9 2.6 0.00 0.00 0.00 80 1016.4
20260903033554 68 32 0.9 3.5 0.00 0.00 0.00 81 1016.4
20260903033052 68 35 1.7 4.3 0.00 0.00 0.00 80 1016.4
20260903032604 68 34 2.6 4.3 0.00 0.00 0.00 80 1016.3
20260903032522 68 34 2.6 4.3 0.00 0.00 0.00 80 1016.3
20260903032015 68 32 2.6 3.5 0.00 0.00 0.00 79 1016.2
20260903031537 68 36 1.7 4.3 0.00 0.00 0.00 79 1016.2
20260903031109 68 35 2.6 4.3 0.00 0.00 0.00 79 1016.1
20260903030541 68 36 2.6 4.3 0.00 0.00 0.00 78 1016.1
20260903030042 68 36 1.7 2.6 0.00 0.00 0.00 77 1016.0
20260903025537 68 36 1.7 2.6 0.00 0.00 0.00 77 1016.1
20260903025029 68 37 1.7 2.6 0.00 0.00 0.00 76 1016.1
20260903024527 69 36 0.9 3.5 0.00 0.00 0.00 76 1016.1
20260903024024 68 36 2.6 4.3 0.00 0.00 0.00 76 1016.0
20260903023538 69 35 3.5 4.3 0.00 0.00 0.00 76 1016.0
20260903023055 69 36 3.5 4.3 0.00 0.00 0.00 76 1016.0
20260903022608 69 35 2.6 4.3 0.00 0.00 0.00 76 1016.0
20260903022525 69 35 2.6 4.3 0.00 0.00 0.00 76 1016.0
20260903022040 69 34 2.6 5.2 0.00 0.00 0.00 76 1016.0
20260903021540 69 35 4.3 7.0 0.00 0.00 0.00 75 1016.0
20260903021033 69 32 3.5 7.0 0.00 0.00 0.00 73 1016.0
20260903020547 69 35 3.5 7.0 0.00 0.00 0.00 73 1016.0
20260903020107 70 35 4.3 7.0 0.00 0.00 0.00 71 1015.9
20260903015558 70 35 3.5 7.0 0.00 0.00 0.00 70 1015.9
20260903015049 71 35 4.3 7.0 0.00 0.00 0.00 69 1015.9
20260903014527 71 35 4.3 7.0 0.00 0.00 0.00 67 1015.9
20260903014020 71 35 3.5 7.8 0.00 0.00 0.00 67 1015.9
20260903013513 71 35 4.3 7.8 0.00 0.00 0.00 67 1015.9
20260903013035 71 34 5.2 7.0 0.00 0.00 0.00 67 1015.9
20260903012608 71 35 3.5 7.8 0.00 0.00 0.00 68 1015.9
20260903012100 72 35 5.2 9.6 0.00 0.00 0.00 65 1015.9
20260903012017 72 35 5.2 9.6 0.00 0.00 0.00 65 1015.9
20260903011537 72 36 6.1 9.6 0.00 0.00 0.00 66 1015.9
20260903011029 72 35 6.1 7.8 0.00 0.00 0.00 65 1015.8
20260903010542 72 35 5.2 7.8 0.00 0.00 0.00 64 1015.8
20260903010113 72 36 6.1 7.8 0.00 0.00 0.00 63 1015.7
20260903005604 72 32 6.1 8.7 0.00 0.00 0.00 62 1015.7
20260903005522 72 32 6.1 8.7 0.00 0.00 0.00 62 1015.7
20260903005035 73 35 5.2 10.4 0.00 0.00 0.00 61 1015.7
20260903004534 73 35 6.1 10.4 0.00 0.00 0.00 60 1015.8
20260903004046 73 37 5.2 7.8 0.00 0.00 0.00 61 1015.6
20260903003541 73 35 3.5 7.8 0.00 0.00 0.00 62 1015.7
20260903003103 74 31 4.3 9.6 0.00 0.00 0.00 59 1015.7
20260903002610 74 35 5.2 9.6 0.00 0.00 0.00 58 1015.7
20260903002528 74 35 5.2 9.6 0.00 0.00 0.00 58 1015.7
20260903002101 74 35 5.2 9.6 0.00 0.00 0.00 59 1015.7
20260903001519 74 35 5.2 9.6 0.00 0.00 0.00 62 1015.7
20260903001017 74 35 5.2 8.7 0.00 0.00 0.00 60 1015.7
20260903000608 73 35 7.0 9.6 0.00 0.00 0.00 62 1015.7
20260903000526 73 35 7.0 9.6 0.00 0.00 0.00 62 1015.7
20260903000107 74 36 6.1 9.6 0.00 0.00 0.00 60 1015.7
20260903000024 74 36 6.1 9.6 0.00 0.00 0.00 60 1015.7
20260902235518 74 36 7.8 12.2 0.00 0.00 0.00 61 1015.8
20260902235033 75 35 7.0 12.2 0.00 0.00 0.00 62 1015.8
20260902234551 74 35 6.1 9.6 0.00 0.00 0.00 62 1015.9
20260902234104 74 37 5.2 9.6 0.00 0.00 0.00 60 1015.9
20260902234021 74 37 5.2 9.6 0.00 0.00 0.00 60 1015.9
20260902233555 74 35 7.0 9.6 0.00 0.00 0.00 59 1015.9
20260902233513 74 35 7.0 9.6 0.00 0.00 0.00 59 1015.9
20260902233034 74 35 6.1 10.4 0.00 0.00 0.00 61 1016.0
20260902232607 74 35 7.0 9.6 0.00 0.00 0.00 61 1016.0
20260902232019 74 35 7.0 11.3 0.00 0.00 0.00 59 1016.0
20260902231602 75 36 7.0 11.3 0.00 0.00 0.00 61 1016.0
20260902231519 75 36 7.0 11.3 0.00 0.00 0.00 61 1016.0
20260902231013 75 34 5.2 10.4 0.00 0.00 0.00 63 1016.1
20260902230607 74 32 8.7 11.3 0.00 0.00 0.00 60 1016.1
20260902230108 74 35 7.0 10.4 0.00 0.00 0.00 62 1016.1
20260902230026 74 35 7.0 10.4 0.00 0.00 0.00 62 1016.1
20260902225559 75 35 6.1 10.4 0.00 0.00 0.00 60 1016.1
20260902225111 75 34 6.1 12.2 0.00 0.00 0.00 60 1016.2
20260902225028 75 34 6.1 12.2 0.00 0.00 0.00 60 1016.2
20260902224526 74 34 7.8 12.2 0.00 0.00 0.00 61 1016.2
20260902224020 75 34 7.0 12.2 0.00 0.00 0.00 60 1016.2
20260902223513 75 35 7.8 12.2 0.00 0.00 0.00 61 1016.2
20260902223035 75 35 7.0 13.9 0.00 0.00 0.00 60 1016.3